Year,Month,Day,Hour,Minute,Value (Times are PST for windspeed in km/hr)
2021,07,03,00,00,0.50
2021,07,03,00,01,0.20
2021,07,03,00,02,0.10
2021,07,03,00,03,0.10
2021,07,03,00,04,0.30
2021,07,03,00,05,0.80
2021,07,03,00,06,0.10
2021,07,03,00,07,0.00
2021,07,03,00,08,1.80
2021,07,03,00,09,1.60
2021,07,03,00,10,1.20
2021,07,03,00,11,0.60
2021,07,03,00,12,0.90
2021,07,03,00,13,0.60
2021,07,03,00,14,0.00
2021,07,03,00,15,0.20
2021,07,03,00,16,0.00
2021,07,03,00,17,0.00
2021,07,03,00,18,0.00
2021,07,03,00,19,0.00
2021,07,03,00,20,0.00
2021,07,03,00,21,0.00
2021,07,03,00,22,0.10
2021,07,03,00,23,0.30
2021,07,03,00,24,1.50
2021,07,03,00,25,2.60
2021,07,03,00,26,2.10
2021,07,03,00,27,2.00
2021,07,03,00,28,0.50
2021,07,03,00,29,0.30
2021,07,03,00,30,0.10
2021,07,03,00,31,0.00
2021,07,03,00,32,0.00
2021,07,03,00,33,0.00
2021,07,03,00,34,0.00
2021,07,03,00,35,0.00
2021,07,03,00,36,0.10
2021,07,03,00,37,2.70
2021,07,03,00,38,1.80
2021,07,03,00,39,0.60
2021,07,03,00,40,4.20
2021,07,03,00,41,3.60
2021,07,03,00,42,1.80
2021,07,03,00,43,6.90
2021,07,03,00,44,9.40
2021,07,03,00,45,6.30
2021,07,03,00,46,3.80
2021,07,03,00,47,1.50
2021,07,03,00,48,0.40
2021,07,03,00,49,1.80
2021,07,03,00,50,3.00
2021,07,03,00,51,5.00
2021,07,03,00,52,6.90
2021,07,03,00,53,5.80
2021,07,03,00,54,5.20
2021,07,03,00,55,1.50
2021,07,03,00,56,1.50
2021,07,03,00,57,3.70
2021,07,03,00,58,4.00
2021,07,03,00,59,5.20
2021,07,03,01,00,3.10
2021,07,03,01,01,2.50
2021,07,03,01,02,2.50
2021,07,03,01,03,6.10
2021,07,03,01,04,5.40
2021,07,03,01,05,2.40
2021,07,03,01,06,5.00
2021,07,03,01,07,2.60
2021,07,03,01,08,5.10
2021,07,03,01,09,6.40
2021,07,03,01,10,6.20
2021,07,03,01,11,6.90
2021,07,03,01,12,2.90
2021,07,03,01,13,2.40
2021,07,03,01,14,5.50
2021,07,03,01,15,8.90
2021,07,03,01,16,6.80
2021,07,03,01,17,2.00
2021,07,03,01,18,5.50
2021,07,03,01,19,6.40
2021,07,03,01,20,6.40
2021,07,03,01,21,7.40
2021,07,03,01,22,6.20
2021,07,03,01,23,13.20
2021,07,03,01,24,9.40
2021,07,03,01,25,7.20
2021,07,03,01,26,11.00
2021,07,03,01,27,8.80
2021,07,03,01,28,6.50
2021,07,03,01,29,5.60
2021,07,03,01,30,8.40
2021,07,03,01,31,6.40
2021,07,03,01,32,5.90
2021,07,03,01,33,7.00
2021,07,03,01,34,3.70
2021,07,03,01,35,3.40
2021,07,03,01,36,6.30
2021,07,03,01,37,4.90
2021,07,03,01,38,8.30
2021,07,03,01,39,8.30
2021,07,03,01,40,7.10
2021,07,03,01,41,7.10
2021,07,03,01,42,7.00
2021,07,03,01,43,7.40
2021,07,03,01,44,4.20
2021,07,03,01,45,4.30
2021,07,03,01,46,5.40
2021,07,03,01,47,2.80
2021,07,03,01,48,3.10
2021,07,03,01,49,0.70
2021,07,03,01,50,1.00
2021,07,03,01,51,8.60
2021,07,03,01,52,2.60
2021,07,03,01,53,6.50
2021,07,03,01,54,4.50
2021,07,03,01,55,6.70
2021,07,03,01,56,5.10
2021,07,03,01,57,1.40
2021,07,03,01,58,0.30
2021,07,03,01,59,2.40
2021,07,03,02,00,3.70
2021,07,03,02,01,7.00
2021,07,03,02,02,7.10
2021,07,03,02,03,4.00
2021,07,03,02,04,6.20
2021,07,03,02,05,5.60
2021,07,03,02,06,3.60
2021,07,03,02,07,2.90
2021,07,03,02,08,6.10
2021,07,03,02,09,3.80
2021,07,03,02,10,4.70
2021,07,03,02,11,1.70
2021,07,03,02,12,1.90
2021,07,03,02,13,0.40
2021,07,03,02,14,1.60
2021,07,03,02,15,0.70
2021,07,03,02,16,1.50
2021,07,03,02,17,2.90
2021,07,03,02,18,0.80
2021,07,03,02,19,2.40
2021,07,03,02,20,1.30
2021,07,03,02,21,1.80
2021,07,03,02,22,2.20
2021,07,03,02,23,1.50
2021,07,03,02,24,2.00
2021,07,03,02,25,4.20
2021,07,03,02,26,3.10
2021,07,03,02,27,3.40
2021,07,03,02,28,2.60
2021,07,03,02,29,1.40
2021,07,03,02,30,4.20
2021,07,03,02,31,4.20
2021,07,03,02,32,1.20
2021,07,03,02,33,2.00
2021,07,03,02,34,3.40
2021,07,03,02,35,4.70
2021,07,03,02,36,6.00
2021,07,03,02,37,5.60
2021,07,03,02,38,4.50
2021,07,03,02,39,2.70
2021,07,03,02,40,2.00
2021,07,03,02,41,1.50
2021,07,03,02,42,0.70
2021,07,03,02,43,1.00
2021,07,03,02,44,3.10
2021,07,03,02,45,3.70
2021,07,03,02,46,3.00
2021,07,03,02,47,5.00
2021,07,03,02,48,2.00
2021,07,03,02,49,2.50
2021,07,03,02,50,3.50
2021,07,03,02,51,2.30
2021,07,03,02,52,2.40
2021,07,03,02,53,2.90
2021,07,03,02,54,2.60
2021,07,03,02,55,4.00
2021,07,03,02,56,0.60
2021,07,03,02,57,0.20
2021,07,03,02,58,2.80
2021,07,03,02,59,1.10
2021,07,03,03,00,0.30
2021,07,03,03,01,1.30
2021,07,03,03,02,4.70
2021,07,03,03,03,2.30
2021,07,03,03,04,2.20
2021,07,03,03,05,5.70
2021,07,03,03,06,4.60
2021,07,03,03,07,9.10
2021,07,03,03,08,8.40
2021,07,03,03,09,7.40
2021,07,03,03,10,6.40
2021,07,03,03,11,4.00
2021,07,03,03,12,5.50
2021,07,03,03,13,4.20
2021,07,03,03,14,2.80
2021,07,03,03,15,0.10
2021,07,03,03,16,1.00
2021,07,03,03,17,1.00
2021,07,03,03,18,3.40
2021,07,03,03,19,4.50
2021,07,03,03,20,5.90
2021,07,03,03,21,2.00
2021,07,03,03,22,0.40
2021,07,03,03,23,0.20
2021,07,03,03,24,0.50
2021,07,03,03,25,0.90
2021,07,03,03,26,0.70
2021,07,03,03,27,1.90
2021,07,03,03,28,0.20
2021,07,03,03,29,0.60
2021,07,03,03,30,0.10
2021,07,03,03,31,0.40
2021,07,03,03,32,0.00
2021,07,03,03,33,0.80
2021,07,03,03,34,1.50
2021,07,03,03,35,1.70
2021,07,03,03,36,5.30
2021,07,03,03,37,3.30
2021,07,03,03,38,1.10
2021,07,03,03,39,1.20
2021,07,03,03,40,3.60
2021,07,03,03,41,7.90
2021,07,03,03,42,5.10
2021,07,03,03,43,1.00
2021,07,03,03,44,1.10
2021,07,03,03,45,5.20
2021,07,03,03,46,5.40
2021,07,03,03,47,4.30
2021,07,03,03,48,3.30
2021,07,03,03,49,3.20
2021,07,03,03,50,1.50
2021,07,03,03,51,2.20
2021,07,03,03,52,0.40
2021,07,03,03,53,6.00
2021,07,03,03,54,9.70
2021,07,03,03,55,3.30
2021,07,03,03,56,3.00
2021,07,03,03,57,4.60
2021,07,03,03,58,1.00
2021,07,03,03,59,2.50
2021,07,03,04,00,2.90
2021,07,03,04,01,3.40
2021,07,03,04,02,1.20
2021,07,03,04,03,0.70
2021,07,03,04,04,0.90
2021,07,03,04,05,0.40
2021,07,03,04,06,2.60
2021,07,03,04,07,2.10
2021,07,03,04,08,0.60
2021,07,03,04,09,0.20
2021,07,03,04,10,2.40
2021,07,03,04,11,3.60
2021,07,03,04,12,2.30
2021,07,03,04,13,0.80
2021,07,03,04,14,2.60
2021,07,03,04,15,4.10
2021,07,03,04,16,2.80
2021,07,03,04,17,3.00
2021,07,03,04,18,2.10
2021,07,03,04,19,2.90
2021,07,03,04,20,2.60
2021,07,03,04,21,2.10
2021,07,03,04,22,1.80
2021,07,03,04,23,0.30
2021,07,03,04,24,0.00
2021,07,03,04,25,0.00
2021,07,03,04,26,0.40
2021,07,03,04,27,0.50
2021,07,03,04,28,0.00
2021,07,03,04,29,0.00
2021,07,03,04,30,0.10
2021,07,03,04,31,0.10
2021,07,03,04,32,0.00
2021,07,03,04,33,0.00
2021,07,03,04,34,0.10
2021,07,03,04,35,1.80
2021,07,03,04,36,0.40
2021,07,03,04,37,0.70
2021,07,03,04,38,1.30
2021,07,03,04,39,0.00
2021,07,03,04,40,0.00
2021,07,03,04,41,0.20
2021,07,03,04,42,1.50
2021,07,03,04,43,2.90
2021,07,03,04,44,1.50
2021,07,03,04,45,2.50
2021,07,03,04,46,0.20
2021,07,03,04,47,0.70
2021,07,03,04,48,0.40
2021,07,03,04,49,0.10
2021,07,03,04,50,1.40
2021,07,03,04,51,1.10
2021,07,03,04,52,0.10
2021,07,03,04,53,0.00
2021,07,03,04,54,0.00
2021,07,03,04,55,0.00
2021,07,03,04,56,0.00
2021,07,03,04,57,0.70
2021,07,03,04,58,1.30
2021,07,03,04,59,0.00
2021,07,03,05,00,0.70
2021,07,03,05,01,0.20
2021,07,03,05,02,0.00
2021,07,03,05,03,0.80
2021,07,03,05,04,1.50
2021,07,03,05,05,0.80
2021,07,03,05,06,0.10
2021,07,03,05,07,0.00
2021,07,03,05,08,0.00
2021,07,03,05,09,0.10
2021,07,03,05,10,0.90
2021,07,03,05,11,2.60
2021,07,03,05,12,0.80
2021,07,03,05,13,0.00
2021,07,03,05,14,0.00
2021,07,03,05,15,0.00
2021,07,03,05,16,0.00
2021,07,03,05,17,0.00
2021,07,03,05,18,0.00
2021,07,03,05,19,0.20
2021,07,03,05,20,0.10
2021,07,03,05,21,1.00
2021,07,03,05,22,0.90
2021,07,03,05,23,0.50
2021,07,03,05,24,1.60
2021,07,03,05,25,0.60
2021,07,03,05,26,0.10
2021,07,03,05,27,1.20
2021,07,03,05,28,0.30
2021,07,03,05,29,2.60
2021,07,03,05,30,1.30
2021,07,03,05,31,0.00
2021,07,03,05,32,0.10
2021,07,03,05,33,0.10
2021,07,03,05,34,0.70
2021,07,03,05,35,2.00
2021,07,03,05,36,0.40
2021,07,03,05,37,0.00
2021,07,03,05,38,0.40
2021,07,03,05,39,1.60
2021,07,03,05,40,0.10
2021,07,03,05,41,0.00
2021,07,03,05,42,0.00
2021,07,03,05,43,0.10
2021,07,03,05,44,0.00
2021,07,03,05,45,0.00
2021,07,03,05,46,0.00
2021,07,03,05,47,0.00
2021,07,03,05,48,0.20
2021,07,03,05,49,0.00
2021,07,03,05,50,0.20
2021,07,03,05,51,1.70
2021,07,03,05,52,1.30
2021,07,03,05,53,1.50
2021,07,03,05,54,0.80
2021,07,03,05,55,0.40
2021,07,03,05,56,0.00
2021,07,03,05,57,0.80
2021,07,03,05,58,1.40
2021,07,03,05,59,2.00
2021,07,03,06,00,0.30
2021,07,03,06,01,0.10
2021,07,03,06,02,0.00
2021,07,03,06,03,1.70
2021,07,03,06,04,0.20
2021,07,03,06,05,0.00
2021,07,03,06,06,0.00
2021,07,03,06,07,0.10
2021,07,03,06,08,0.20
2021,07,03,06,09,0.00
2021,07,03,06,10,2.80
2021,07,03,06,11,1.80
2021,07,03,06,12,0.00
2021,07,03,06,13,0.10
2021,07,03,06,14,0.00
2021,07,03,06,15,0.00
2021,07,03,06,16,0.00
2021,07,03,06,17,0.00
2021,07,03,06,18,0.00
2021,07,03,06,19,0.00
2021,07,03,06,20,0.00
2021,07,03,06,21,2.30
2021,07,03,06,22,1.90
2021,07,03,06,23,0.80
2021,07,03,06,24,0.40
2021,07,03,06,25,0.30
2021,07,03,06,26,0.00
2021,07,03,06,27,0.00
2021,07,03,06,28,1.10
2021,07,03,06,29,2.50
2021,07,03,06,30,2.50
2021,07,03,06,31,1.90
2021,07,03,06,32,1.80
2021,07,03,06,33,0.40
2021,07,03,06,34,0.10
2021,07,03,06,35,0.10
2021,07,03,06,36,0.00
2021,07,03,06,37,0.00
2021,07,03,06,38,0.00
2021,07,03,06,39,0.00
2021,07,03,06,40,0.00
2021,07,03,06,41,0.40
2021,07,03,06,42,0.80
2021,07,03,06,43,1.60
2021,07,03,06,44,2.20
2021,07,03,06,45,0.20
2021,07,03,06,46,0.00
2021,07,03,06,47,0.00
2021,07,03,06,48,0.00
2021,07,03,06,49,0.00
2021,07,03,06,50,0.60
2021,07,03,06,51,1.30
2021,07,03,06,52,1.90
2021,07,03,06,53,1.40
2021,07,03,06,54,1.80
2021,07,03,06,55,1.00
2021,07,03,06,56,0.30
2021,07,03,06,57,1.10
2021,07,03,06,58,2.30
2021,07,03,06,59,3.10
2021,07,03,07,00,1.60
2021,07,03,07,01,0.00
2021,07,03,07,02,0.00
2021,07,03,07,03,0.90
2021,07,03,07,04,0.00
2021,07,03,07,05,0.80
2021,07,03,07,06,0.60
2021,07,03,07,07,0.60
2021,07,03,07,08,0.00
2021,07,03,07,09,0.00
2021,07,03,07,10,0.00
2021,07,03,07,11,0.00
2021,07,03,07,12,1.80
2021,07,03,07,13,2.60
2021,07,03,07,14,2.20
2021,07,03,07,15,0.70
2021,07,03,07,16,0.00
2021,07,03,07,17,2.00
2021,07,03,07,18,1.00
2021,07,03,07,19,0.10
2021,07,03,07,20,0.90
2021,07,03,07,21,0.10
2021,07,03,07,22,0.00
2021,07,03,07,23,1.00
2021,07,03,07,24,2.90
2021,07,03,07,25,2.40
2021,07,03,07,26,0.10
2021,07,03,07,27,1.60
2021,07,03,07,28,2.60
2021,07,03,07,29,2.40
2021,07,03,07,30,0.10
2021,07,03,07,31,0.20
2021,07,03,07,32,0.60
2021,07,03,07,33,0.70
2021,07,03,07,34,1.00
2021,07,03,07,35,6.60
2021,07,03,07,36,9.30
2021,07,03,07,37,3.70
2021,07,03,07,38,5.30
2021,07,03,07,39,4.70
2021,07,03,07,40,3.90
2021,07,03,07,41,3.90
2021,07,03,07,42,3.00
2021,07,03,07,43,1.40
2021,07,03,07,44,0.60
2021,07,03,07,45,2.50
2021,07,03,07,46,3.20
2021,07,03,07,47,6.60
2021,07,03,07,48,5.20
2021,07,03,07,49,4.40
2021,07,03,07,50,1.50
2021,07,03,07,51,1.80
2021,07,03,07,52,0.60
2021,07,03,07,53,2.80
2021,07,03,07,54,5.00
2021,07,03,07,55,1.80
2021,07,03,07,56,2.90
2021,07,03,07,57,7.10
2021,07,03,07,58,8.50
2021,07,03,07,59,9.80
2021,07,03,08,00,6.90
2021,07,03,08,01,8.00
2021,07,03,08,02,3.40
2021,07,03,08,03,5.60
2021,07,03,08,04,5.80
2021,07,03,08,05,1.20
2021,07,03,08,06,0.80
2021,07,03,08,07,0.40
2021,07,03,08,08,1.00
2021,07,03,08,09,0.40
2021,07,03,08,10,2.70
2021,07,03,08,11,5.60
2021,07,03,08,12,4.30
2021,07,03,08,13,5.70
2021,07,03,08,14,5.60
2021,07,03,08,15,8.70
2021,07,03,08,16,8.60
2021,07,03,08,17,6.60
2021,07,03,08,18,6.80
2021,07,03,08,19,11.50
2021,07,03,08,20,12.10
2021,07,03,08,21,8.50
2021,07,03,08,22,5.40
2021,07,03,08,23,5.00
2021,07,03,08,24,7.90
2021,07,03,08,25,5.40
2021,07,03,08,26,4.70
2021,07,03,08,27,3.50
2021,07,03,08,28,4.60
2021,07,03,08,29,4.10
2021,07,03,08,30,2.70
2021,07,03,08,31,1.90
2021,07,03,08,32,3.00
2021,07,03,08,33,2.20
2021,07,03,08,34,0.60
2021,07,03,08,35,2.30
2021,07,03,08,36,1.90
2021,07,03,08,37,3.90
2021,07,03,08,38,6.40
2021,07,03,08,39,2.90
2021,07,03,08,40,1.80
2021,07,03,08,41,3.00
2021,07,03,08,42,4.00
2021,07,03,08,43,2.50
2021,07,03,08,44,1.30
2021,07,03,08,45,7.30
2021,07,03,08,46,5.90
2021,07,03,08,47,3.90
2021,07,03,08,48,3.90
2021,07,03,08,49,4.30
2021,07,03,08,50,5.60
2021,07,03,08,51,2.90
2021,07,03,08,52,2.10
2021,07,03,08,53,1.40
2021,07,03,08,54,2.10
2021,07,03,08,55,3.30
2021,07,03,08,56,3.70
2021,07,03,08,57,3.50
2021,07,03,08,58,5.00
2021,07,03,08,59,2.30
2021,07,03,09,00,3.00
2021,07,03,09,01,3.10
2021,07,03,09,02,2.70
2021,07,03,09,03,3.20
2021,07,03,09,04,1.50
2021,07,03,09,05,0.30
2021,07,03,09,06,2.60
2021,07,03,09,07,0.40
2021,07,03,09,08,1.60
2021,07,03,09,09,1.90
2021,07,03,09,10,1.70
2021,07,03,09,11,4.80
2021,07,03,09,12,6.40
2021,07,03,09,13,3.60
2021,07,03,09,14,3.70
2021,07,03,09,15,1.90
2021,07,03,09,16,0.00
2021,07,03,09,17,0.60
2021,07,03,09,18,4.40
2021,07,03,09,19,2.30
2021,07,03,09,20,4.50
2021,07,03,09,21,5.60
2021,07,03,09,22,1.20
2021,07,03,09,23,3.70
2021,07,03,09,24,2.00
2021,07,03,09,25,2.90
2021,07,03,09,26,2.30
2021,07,03,09,27,7.30
2021,07,03,09,28,6.50
2021,07,03,09,29,7.10
2021,07,03,09,30,2.10
2021,07,03,09,31,4.70
2021,07,03,09,32,2.00
2021,07,03,09,33,2.20
2021,07,03,09,34,3.50
2021,07,03,09,35,4.80
2021,07,03,09,36,2.00
2021,07,03,09,37,2.50
2021,07,03,09,38,5.50
2021,07,03,09,39,7.90
2021,07,03,09,40,7.80
2021,07,03,09,41,3.20
2021,07,03,09,42,3.10
2021,07,03,09,43,5.20
2021,07,03,09,44,5.50
2021,07,03,09,45,7.10
2021,07,03,09,46,5.90
2021,07,03,09,47,5.70
2021,07,03,09,48,6.80
2021,07,03,09,49,5.40
2021,07,03,09,50,5.80
2021,07,03,09,51,4.10
2021,07,03,09,52,3.70
2021,07,03,09,53,8.10
2021,07,03,09,54,4.50
2021,07,03,09,55,1.40
2021,07,03,09,56,6.70
2021,07,03,09,57,6.10
2021,07,03,09,58,7.60
2021,07,03,09,59,5.90
2021,07,03,10,00,2.70
2021,07,03,10,01,6.40
2021,07,03,10,02,6.40
2021,07,03,10,03,3.70
2021,07,03,10,04,2.60
2021,07,03,10,05,2.30
2021,07,03,10,06,2.80
2021,07,03,10,07,0.30
2021,07,03,10,08,3.80
2021,07,03,10,09,7.10
2021,07,03,10,10,5.50
2021,07,03,10,11,11.20
2021,07,03,10,12,9.50
2021,07,03,10,13,8.60
2021,07,03,10,14,13.30
2021,07,03,10,15,10.30
2021,07,03,10,16,7.30
2021,07,03,10,17,4.50
2021,07,03,10,18,6.10
2021,07,03,10,19,5.30
2021,07,03,10,20,5.90
2021,07,03,10,21,6.40
2021,07,03,10,22,3.60
2021,07,03,10,23,7.70
2021,07,03,10,24,4.40
2021,07,03,10,25,1.70
2021,07,03,10,26,2.20
2021,07,03,10,27,0.90
2021,07,03,10,28,1.50
2021,07,03,10,29,1.80
2021,07,03,10,30,1.60
2021,07,03,10,31,3.20
2021,07,03,10,32,7.00
2021,07,03,10,33,8.50
2021,07,03,10,34,8.00
2021,07,03,10,35,7.80
2021,07,03,10,36,7.00
2021,07,03,10,37,8.30
2021,07,03,10,38,7.60
2021,07,03,10,39,3.10
2021,07,03,10,40,1.50
2021,07,03,10,41,0.70
2021,07,03,10,42,1.60
2021,07,03,10,43,5.60
2021,07,03,10,44,3.10
2021,07,03,10,45,0.80
2021,07,03,10,46,0.10
2021,07,03,10,47,0.90
2021,07,03,10,48,2.00
2021,07,03,10,49,5.40
2021,07,03,10,50,9.60
2021,07,03,10,51,8.30
2021,07,03,10,52,10.20
2021,07,03,10,53,7.50
2021,07,03,10,54,2.20
2021,07,03,10,55,1.60
2021,07,03,10,56,3.40
2021,07,03,10,57,3.00
2021,07,03,10,58,0.40
2021,07,03,10,59,3.90
2021,07,03,11,00,3.70
2021,07,03,11,01,5.30
2021,07,03,11,02,8.40
2021,07,03,11,03,8.00
2021,07,03,11,04,7.20
2021,07,03,11,05,6.20
2021,07,03,11,06,4.50
2021,07,03,11,07,3.60
2021,07,03,11,08,4.00
2021,07,03,11,09,2.70
2021,07,03,11,10,1.70
2021,07,03,11,11,2.80
2021,07,03,11,12,7.50
2021,07,03,11,13,6.10
2021,07,03,11,14,6.60
2021,07,03,11,15,5.00
2021,07,03,11,16,4.70
2021,07,03,11,17,2.60
2021,07,03,11,18,2.10
2021,07,03,11,19,2.80
2021,07,03,11,20,7.10
2021,07,03,11,21,2.40
2021,07,03,11,22,2.40
2021,07,03,11,23,2.50
2021,07,03,11,24,2.10
2021,07,03,11,25,2.10
2021,07,03,11,26,2.00
2021,07,03,11,27,2.10
2021,07,03,11,28,4.80
2021,07,03,11,29,9.40
2021,07,03,11,30,4.00
2021,07,03,11,31,6.10
2021,07,03,11,32,4.20
2021,07,03,11,33,2.10
2021,07,03,11,34,6.60
2021,07,03,11,35,8.20
2021,07,03,11,36,12.30
2021,07,03,11,37,7.80
2021,07,03,11,38,5.20
2021,07,03,11,39,8.00
2021,07,03,11,40,4.50
2021,07,03,11,41,2.40
2021,07,03,11,42,3.00
2021,07,03,11,43,3.50
2021,07,03,11,44,3.80
2021,07,03,11,45,6.40
2021,07,03,11,46,3.80
2021,07,03,11,47,2.90
2021,07,03,11,48,2.00
2021,07,03,11,49,2.30
2021,07,03,11,50,5.60
2021,07,03,11,51,2.60
2021,07,03,11,52,9.40
2021,07,03,11,53,9.00
2021,07,03,11,54,4.80
2021,07,03,11,55,5.00
2021,07,03,11,56,7.20
2021,07,03,11,57,6.20
2021,07,03,11,58,6.10
2021,07,03,11,59,5.60
2021,07,03,12,00,2.10
2021,07,03,12,01,2.60
2021,07,03,12,02,3.80
2021,07,03,12,03,6.00
2021,07,03,12,04,0.80
2021,07,03,12,05,3.90
2021,07,03,12,06,8.30
2021,07,03,12,07,8.60
2021,07,03,12,08,7.90
2021,07,03,12,09,4.10
2021,07,03,12,10,2.10
2021,07,03,12,11,7.60
2021,07,03,12,12,8.20
2021,07,03,12,13,5.80
2021,07,03,12,14,1.40
2021,07,03,12,15,1.50
2021,07,03,12,16,2.50
2021,07,03,12,17,4.10
2021,07,03,12,18,3.80
2021,07,03,12,19,5.30
2021,07,03,12,20,3.60
2021,07,03,12,21,11.90
2021,07,03,12,22,10.30
2021,07,03,12,23,7.70
2021,07,03,12,24,4.60
2021,07,03,12,25,4.80
2021,07,03,12,26,4.30
2021,07,03,12,27,6.00
2021,07,03,12,28,0.80
2021,07,03,12,29,5.50
2021,07,03,12,30,6.00
2021,07,03,12,31,6.60
2021,07,03,12,32,5.90
2021,07,03,12,33,3.50
2021,07,03,12,34,5.70
2021,07,03,12,35,5.30
2021,07,03,12,36,12.70
2021,07,03,12,37,12.20
2021,07,03,12,38,12.30
2021,07,03,12,39,9.90
2021,07,03,12,40,12.90
2021,07,03,12,41,6.10
2021,07,03,12,42,4.10
2021,07,03,12,43,4.90
2021,07,03,12,44,1.60
2021,07,03,12,45,3.40
2021,07,03,12,46,4.30
2021,07,03,12,47,3.10
2021,07,03,12,48,6.00
2021,07,03,12,49,5.10
2021,07,03,12,50,11.00
2021,07,03,12,51,4.70
2021,07,03,12,52,3.90
2021,07,03,12,53,6.90
2021,07,03,12,54,9.60
2021,07,03,12,55,10.80
2021,07,03,12,56,15.20
2021,07,03,12,57,12.10
2021,07,03,12,58,12.20
2021,07,03,12,59,15.00
2021,07,03,13,00,8.30
2021,07,03,13,01,2.50
2021,07,03,13,02,3.50
2021,07,03,13,03,0.80
2021,07,03,13,04,1.70
2021,07,03,13,05,5.00
2021,07,03,13,06,6.60
2021,07,03,13,07,9.00
2021,07,03,13,08,11.00
2021,07,03,13,09,12.10
2021,07,03,13,10,16.90
2021,07,03,13,11,14.00
2021,07,03,13,12,9.70
2021,07,03,13,13,9.00
2021,07,03,13,14,12.50
2021,07,03,13,15,5.10
2021,07,03,13,16,5.60
2021,07,03,13,17,8.20
2021,07,03,13,18,7.20
2021,07,03,13,19,8.30
2021,07,03,13,20,9.30
2021,07,03,13,21,11.90
2021,07,03,13,22,9.90
2021,07,03,13,23,11.60
2021,07,03,13,24,7.80
2021,07,03,13,25,6.60
2021,07,03,13,26,7.70
2021,07,03,13,27,9.00
2021,07,03,13,28,8.00
2021,07,03,13,29,4.20
2021,07,03,13,30,4.10
2021,07,03,13,31,10.70
2021,07,03,13,32,4.10
2021,07,03,13,33,5.00
2021,07,03,13,34,14.50
2021,07,03,13,35,12.00
2021,07,03,13,36,9.80
2021,07,03,13,37,8.30
2021,07,03,13,38,6.60
2021,07,03,13,39,0.70
2021,07,03,13,40,1.30
2021,07,03,13,41,2.70
2021,07,03,13,42,4.00
2021,07,03,13,43,6.70
2021,07,03,13,44,6.20
2021,07,03,13,45,5.40
2021,07,03,13,46,9.60
2021,07,03,13,47,7.40
2021,07,03,13,48,6.80
2021,07,03,13,49,13.80
2021,07,03,13,50,14.60
2021,07,03,13,51,11.60
2021,07,03,13,52,7.40
2021,07,03,13,53,7.20
2021,07,03,13,54,8.80
2021,07,03,13,55,4.50
2021,07,03,13,56,2.20
2021,07,03,13,57,5.30
2021,07,03,13,58,10.50
2021,07,03,13,59,6.70
2021,07,03,14,00,4.30
2021,07,03,14,01,5.90
2021,07,03,14,02,11.20
2021,07,03,14,03,8.50
2021,07,03,14,04,2.40
2021,07,03,14,05,3.00
2021,07,03,14,06,11.50
2021,07,03,14,07,8.90
2021,07,03,14,08,4.00
2021,07,03,14,09,2.70
2021,07,03,14,10,5.10
2021,07,03,14,11,9.10
2021,07,03,14,12,8.00
2021,07,03,14,13,13.10
2021,07,03,14,14,11.00
2021,07,03,14,15,8.60
2021,07,03,14,16,8.40
2021,07,03,14,17,8.00
2021,07,03,14,18,10.20
2021,07,03,14,19,11.90
2021,07,03,14,20,9.40
2021,07,03,14,21,7.80
2021,07,03,14,22,9.10
2021,07,03,14,23,5.10
2021,07,03,14,24,8.50
2021,07,03,14,25,5.80
2021,07,03,14,26,6.30
2021,07,03,14,27,12.90
2021,07,03,14,28,9.20
2021,07,03,14,29,8.20
2021,07,03,14,30,10.60
2021,07,03,14,31,11.30
2021,07,03,14,32,10.90
2021,07,03,14,33,11.60
2021,07,03,14,34,8.60
2021,07,03,14,35,13.50
2021,07,03,14,36,14.50
2021,07,03,14,37,8.70
2021,07,03,14,38,6.40
2021,07,03,14,39,3.80
2021,07,03,14,40,10.90
2021,07,03,14,41,10.80
2021,07,03,14,42,14.10
2021,07,03,14,43,15.30
2021,07,03,14,44,14.00
2021,07,03,14,45,15.80
2021,07,03,14,46,12.50
2021,07,03,14,47,14.30
2021,07,03,14,48,8.70
2021,07,03,14,49,9.00
2021,07,03,14,50,5.30
2021,07,03,14,51,4.30
2021,07,03,14,52,12.40
2021,07,03,14,53,8.90
2021,07,03,14,54,13.10
2021,07,03,14,55,12.70
2021,07,03,14,56,14.40
2021,07,03,14,57,17.90
2021,07,03,14,58,12.00
2021,07,03,14,59,11.50
2021,07,03,15,00,12.90
2021,07,03,15,01,11.00
2021,07,03,15,02,7.70
2021,07,03,15,03,13.20
2021,07,03,15,04,16.30
2021,07,03,15,05,9.70
2021,07,03,15,06,9.30
2021,07,03,15,07,13.90
2021,07,03,15,08,6.60
2021,07,03,15,09,4.50
2021,07,03,15,10,11.60
2021,07,03,15,11,6.70
2021,07,03,15,12,10.80
2021,07,03,15,13,6.90
2021,07,03,15,14,9.80
2021,07,03,15,15,10.80
2021,07,03,15,16,11.50
2021,07,03,15,17,10.50
2021,07,03,15,18,11.90
2021,07,03,15,19,18.10
2021,07,03,15,20,10.10
2021,07,03,15,21,15.20
2021,07,03,15,22,9.70
2021,07,03,15,23,12.70
2021,07,03,15,24,16.60
2021,07,03,15,25,17.90
2021,07,03,15,26,14.60
2021,07,03,15,27,11.00
2021,07,03,15,28,12.80
2021,07,03,15,29,8.00
2021,07,03,15,30,6.50
2021,07,03,15,31,8.50
2021,07,03,15,32,7.40
2021,07,03,15,33,19.30
2021,07,03,15,34,13.70
2021,07,03,15,35,18.10
2021,07,03,15,36,12.40
2021,07,03,15,37,15.40
2021,07,03,15,38,10.20
2021,07,03,15,39,11.80
2021,07,03,15,40,13.20
2021,07,03,15,41,13.90
2021,07,03,15,42,16.10
2021,07,03,15,43,13.70
2021,07,03,15,44,5.30
2021,07,03,15,45,6.80
2021,07,03,15,46,6.30
2021,07,03,15,47,12.40
2021,07,03,15,48,12.70
2021,07,03,15,49,10.90
2021,07,03,15,50,7.80
2021,07,03,15,51,11.30
2021,07,03,15,52,12.60
2021,07,03,15,53,10.90
2021,07,03,15,54,9.40
2021,07,03,15,55,7.50
2021,07,03,15,56,8.30
2021,07,03,15,57,7.30
2021,07,03,15,58,6.50
2021,07,03,15,59,8.30
2021,07,03,16,00,10.10
2021,07,03,16,01,13.30
2021,07,03,16,02,8.50
2021,07,03,16,03,9.80
2021,07,03,16,04,10.50
2021,07,03,16,05,10.30
2021,07,03,16,06,14.70
2021,07,03,16,07,9.80
2021,07,03,16,08,9.90
2021,07,03,16,09,11.80
2021,07,03,16,10,13.70
2021,07,03,16,11,14.30
2021,07,03,16,12,11.30
2021,07,03,16,13,8.80
2021,07,03,16,14,11.30
2021,07,03,16,15,9.50
2021,07,03,16,16,17.60
2021,07,03,16,17,11.90
2021,07,03,16,18,10.60
2021,07,03,16,19,12.90
2021,07,03,16,20,11.30
2021,07,03,16,21,7.10
2021,07,03,16,22,3.40
2021,07,03,16,23,9.40
2021,07,03,16,24,9.00
2021,07,03,16,25,4.50
2021,07,03,16,26,3.70
2021,07,03,16,27,9.30
2021,07,03,16,28,9.20
2021,07,03,16,29,14.30
2021,07,03,16,30,15.50
2021,07,03,16,31,12.50
2021,07,03,16,32,14.20
2021,07,03,16,33,15.00
2021,07,03,16,34,10.90
2021,07,03,16,35,9.80
2021,07,03,16,36,12.50
2021,07,03,16,37,11.80
2021,07,03,16,38,11.60
2021,07,03,16,39,9.70
2021,07,03,16,40,15.30
2021,07,03,16,41,16.10
2021,07,03,16,42,9.70
2021,07,03,16,43,4.50
2021,07,03,16,44,11.10
2021,07,03,16,45,10.70
2021,07,03,16,46,9.10
2021,07,03,16,47,2.80
2021,07,03,16,48,5.20
2021,07,03,16,49,5.60
2021,07,03,16,50,7.80
2021,07,03,16,51,6.80
2021,07,03,16,52,7.90
2021,07,03,16,53,3.80
2021,07,03,16,54,8.20
2021,07,03,16,55,8.60
2021,07,03,16,56,15.80
2021,07,03,16,57,14.80
2021,07,03,16,58,10.60
2021,07,03,16,59,15.50
2021,07,03,17,00,13.20
2021,07,03,17,01,12.40
2021,07,03,17,02,15.30
2021,07,03,17,03,10.30
2021,07,03,17,04,16.80
2021,07,03,17,05,16.40
2021,07,03,17,06,16.40
2021,07,03,17,07,12.70
2021,07,03,17,08,10.90
2021,07,03,17,09,11.00
2021,07,03,17,10,9.00
2021,07,03,17,11,9.10
2021,07,03,17,12,11.80
2021,07,03,17,13,14.40
2021,07,03,17,14,11.70
2021,07,03,17,15,10.50
2021,07,03,17,16,9.20
2021,07,03,17,17,11.00
2021,07,03,17,18,9.70
2021,07,03,17,19,13.40
2021,07,03,17,20,9.70
2021,07,03,17,21,13.20
2021,07,03,17,22,7.00
2021,07,03,17,23,10.00
2021,07,03,17,24,13.20
2021,07,03,17,25,13.50
2021,07,03,17,26,12.30
2021,07,03,17,27,10.60
2021,07,03,17,28,10.60
2021,07,03,17,29,9.10
2021,07,03,17,30,10.50
2021,07,03,17,31,11.20
2021,07,03,17,32,9.70
2021,07,03,17,33,10.60
2021,07,03,17,34,6.80
2021,07,03,17,35,9.90
2021,07,03,17,36,10.30
2021,07,03,17,37,11.70
2021,07,03,17,38,9.00
2021,07,03,17,39,7.40
2021,07,03,17,40,6.50
2021,07,03,17,41,14.70
2021,07,03,17,42,11.90
2021,07,03,17,43,13.30
2021,07,03,17,44,5.50
2021,07,03,17,45,6.80
2021,07,03,17,46,6.20
2021,07,03,17,47,11.40
2021,07,03,17,48,15.20
2021,07,03,17,49,8.50
2021,07,03,17,50,5.10
2021,07,03,17,51,6.40
2021,07,03,17,52,7.30
2021,07,03,17,53,10.80
2021,07,03,17,54,13.70
2021,07,03,17,55,12.70
2021,07,03,17,56,9.60
2021,07,03,17,57,5.90
2021,07,03,17,58,8.70
2021,07,03,17,59,8.60